Location: ????? ??????
(37.8317°N, 23.8750°E)
Time: 13:32:33
(UTC+00:00)

CSL-04 Debris - Pass Details

Date: 20 January 2021
Orbit: 827 x 847 km, 98.9° (Epoch: 03 March)

Event Time Altitude Azimuth Distance (km) Brightness Sun altitude
Rises 17:36:26 0° 167° (SSE) 3,360 7.3 -23.8°
Reaches altitude 10° 17:38:47 10° 169° (SSE) 2,428 6.5 -24.3°
Maximum altitude 17:44:10 81° 256° (WSW) 843 4.1 -25.3°
Drops below altitude 10° 17:49:35 10° 344° (NNW) 2,438 6.7 -26.4°
Sets 17:51:56 0° 346° (NNW) 3,375 7.4 -26.9°
